Time,TemperatureF,DewpointF,PressureIn,WindDirection,WindDirectionDegrees,WindSpeedMPH,WindSpeedGustMPH,Humidity,HourlyPrecipIn,Conditions,Clouds,dailyrainin,SoftwareType,DateUTC
2014-01-15 00:00:00,61.7,25.5,30.34,South,189,1.0,1.0,25,0.00,,,0.00,Wunderground v.1.15,2014-01-15 08:00:00,
2014-01-15 00:10:00,62.3,26.0,30.34,ESE,106,0.0,0.0,25,0.00,,,0.00,Wunderground v.1.15,2014-01-15 08:10:00,
2014-01-15 00:15:00,61.7,25.5,30.34,SSW,200,1.0,4.0,25,0.00,,,0.00,Wunderground v.1.15,2014-01-15 08:15:00,
2014-01-15 00:20:00,62.5,25.2,30.34,WNW,287,1.0,1.0,24,0.00,,,0.00,Wunderground v.1.15,2014-01-15 08:20:00,
2014-01-15 00:25:00,62.3,25.0,30.34,West,278,1.0,1.0,24,0.00,,,0.00,Wunderground v.1.15,2014-01-15 08:25:00,
2014-01-15 00:30:00,63.0,24.6,30.33,WSW,248,1.0,1.0,23,0.00,,,0.00,Wunderground v.1.15,2014-01-15 08:30:00,
2014-01-15 00:40:00,63.6,25.1,30.33,WNW,288,0.0,0.0,23,0.00,,,0.00,Wunderground v.1.15,2014-01-15 08:40:00,
2014-01-15 00:45:00,63.3,24.8,30.33,WNW,288,0.0,0.0,23,0.00,,,0.00,Wunderground v.1.15,2014-01-15 08:45:00,
2014-01-15 00:50:00,63.8,24.2,30.33,WNW,288,0.0,0.0,22,0.00,,,0.00,Wunderground v.1.15,2014-01-15 08:50:00,
2014-01-15 00:55:00,63.5,25.0,30.33,WNW,286,0.0,0.0,23,0.00,,,0.00,Wunderground v.1.15,2014-01-15 08:55:00,
2014-01-15 01:00:00,63.0,24.6,30.33,WSW,253,0.0,1.0,23,0.00,,,0.00,Wunderground v.1.15,2014-01-15 09:00:00,
2014-01-15 01:05:00,63.5,23.9,30.33,WSW,254,0.0,1.0,22,0.00,,,0.00,Wunderground v.1.15,2014-01-15 09:05:00,
2014-01-15 01:15:00,64.5,24.8,30.33,WSW,254,0.0,4.0,22,0.00,,,0.00,Wunderground v.1.15,2014-01-15 09:15:00,
2014-01-15 01:20:00,64.6,24.9,30.33,WSW,254,0.0,4.0,22,0.00,,,0.00,Wunderground v.1.15,2014-01-15 09:20:00,
2014-01-15 01:25:00,63.9,24.3,30.33,East,80,0.0,4.0,22,0.00,,,0.00,Wunderground v.1.15,2014-01-15 09:25:00,
2014-01-15 01:30:00,62.4,26.1,30.33,SSE,148,0.0,4.0,25,0.00,,,0.00,Wunderground v.1.15,2014-01-15 09:30:00,
2014-01-15 01:35:00,61.7,25.5,30.34,ESE,120,0.0,4.0,25,0.00,,,0.00,Wunderground v.1.15,2014-01-15 09:35:00,
2014-01-15 01:45:00,60.9,26.7,30.34,ENE,66,0.0,4.0,27,0.00,,,0.00,Wunderground v.1.15,2014-01-15 09:45:00,
2014-01-15 01:50:00,60.0,26.8,30.34,ENE,66,0.0,4.0,28,0.00,,,0.00,Wunderground v.1.15,2014-01-15 09:50:00,
2014-01-15 01:55:00,59.5,26.3,30.34,SW,214,1.0,4.0,28,0.00,,,0.00,Wunderground v.1.15,2014-01-15 09:55:00,
2014-01-15 02:00:00,59.1,26.0,30.34,NW,325,1.0,4.0,28,0.00,,,0.00,Wunderground v.1.15,2014-01-15 10:00:00,
2014-01-15 02:05:00,59.8,25.7,30.34,WNW,288,1.0,4.0,27,0.00,,,0.00,Wunderground v.1.15,2014-01-15 10:05:00,
2014-01-15 02:10:00,60.7,25.6,30.34,SW,226,1.0,1.0,26,0.00,,,0.00,Wunderground v.1.15,2014-01-15 10:10:00,
2014-01-15 02:15:00,61.1,25.9,30.34,WSW,257,1.0,4.0,26,0.00,,,0.00,Wunderground v.1.15,2014-01-15 10:15:00,
2014-01-15 02:20:00,61.2,26.0,30.34,South,186,0.0,4.0,26,0.00,,,0.00,Wunderground v.1.15,2014-01-15 10:20:00,
2014-01-15 02:25:00,61.4,26.2,30.34,SW,219,0.0,4.0,26,0.00,,,0.00,Wunderground v.1.15,2014-01-15 10:25:00,
2014-01-15 02:30:00,61.1,26.8,30.34,North,2,0.0,4.0,27,0.00,,,0.00,Wunderground v.1.15,2014-01-15 10:30:00,
2014-01-15 02:40:00,60.5,26.3,30.34,West,271,0.0,4.0,27,0.00,,,0.00,Wunderground v.1.15,2014-01-15 10:40:00,
2014-01-15 02:50:00,60.2,25.1,30.34,West,274,1.0,1.0,26,0.00,,,0.00,Wunderground v.1.15,2014-01-15 10:50:00,
2014-01-15 02:55:00,60.3,25.2,30.34,NNE,16,1.0,4.0,26,0.00,,,0.00,Wunderground v.1.15,2014-01-15 10:55:00,
2014-01-15 03:00:00,60.2,26.1,30.34,NNE,16,0.0,4.0,27,0.00,,,0.00,Wunderground v.1.15,2014-01-15 11:00:00,
2014-01-15 03:05:00,60.3,27.0,30.34,SSE,166,0.0,4.0,28,0.00,,,0.00,Wunderground v.1.15,2014-01-15 11:05:00,
2014-01-15 03:10:00,60.1,27.7,30.34,SSW,210,1.0,1.0,29,0.00,,,0.00,Wunderground v.1.15,2014-01-15 11:10:00,
2014-01-15 03:20:00,59.7,28.2,30.34,SW,219,0.0,4.0,30,0.00,,,0.00,Wunderground v.1.15,2014-01-15 11:20:00,
2014-01-15 03:25:00,59.6,28.1,30.34,SW,221,0.0,4.0,30,0.00,,,0.00,Wunderground v.1.15,2014-01-15 11:25:00,
2014-01-15 03:30:00,60.1,28.5,30.34,SW,224,0.0,4.0,30,0.00,,,0.00,Wunderground v.1.15,2014-01-15 11:30:00,
2014-01-15 03:35:00,60.2,28.6,30.34,SW,224,0.0,4.0,30,0.00,,,0.00,Wunderground v.1.15,2014-01-15 11:35:00,
2014-01-15 03:40:00,60.2,28.6,30.33,SW,224,0.0,4.0,30,0.00,,,0.00,Wunderground v.1.15,2014-01-15 11:40:00,
2014-01-15 03:45:00,59.7,28.2,30.33,SW,224,0.0,4.0,30,0.00,,,0.00,Wunderground v.1.15,2014-01-15 11:45:00,
2014-01-15 03:55:00,60.0,29.2,30.33,SE,128,1.0,4.0,31,0.00,,,0.00,Wunderground v.1.15,2014-01-15 11:55:00,
2014-01-15 04:00:00,60.2,28.6,30.33,SE,131,0.0,4.0,30,0.00,,,0.00,Wunderground v.1.15,2014-01-15 12:00:00,
2014-01-15 04:05:00,59.8,29.1,30.33,SE,132,0.0,4.0,31,0.00,,,0.00,Wunderground v.1.15,2014-01-15 12:05:00,
2014-01-15 04:10:00,59.7,29.0,30.33,SE,134,0.0,4.0,31,0.00,,,0.00,Wunderground v.1.15,2014-01-15 12:10:00,
2014-01-15 04:15:00,59.8,29.1,30.34,WNW,295,0.0,4.0,31,0.00,,,0.00,Wunderground v.1.15,2014-01-15 12:15:00,
2014-01-15 04:25:00,59.6,29.7,30.34,ESE,115,1.0,4.0,32,0.00,,,0.00,Wunderground v.1.15,2014-01-15 12:25:00,
2014-01-15 04:30:00,59.7,29.0,30.33,ESE,118,1.0,4.0,31,0.00,,,0.00,Wunderground v.1.15,2014-01-15 12:30:00,
2014-01-15 04:35:00,59.6,29.7,30.33,SE,127,0.0,4.0,32,0.00,,,0.00,Wunderground v.1.15,2014-01-15 12:35:00,
2014-01-15 04:40:00,59.0,29.2,30.33,SE,145,0.0,4.0,32,0.00,,,0.00,Wunderground v.1.15,2014-01-15 12:40:00,
2014-01-15 04:45:00,58.7,29.6,30.33,SE,140,1.0,4.0,33,0.00,,,0.00,Wunderground v.1.15,2014-01-15 12:45:00,
2014-01-15 04:50:00,58.9,30.6,30.33,SE,136,1.0,4.0,34,0.00,,,0.00,Wunderground v.1.15,2014-01-15 12:50:00,
2014-01-15 05:00:00,59.2,30.8,30.33,SE,131,1.0,1.0,34,0.00,,,0.00,Wunderground v.1.15,2014-01-15 13:00:00,
2014-01-15 05:05:00,59.5,30.3,30.33,SE,131,0.0,4.0,33,0.00,,,0.00,Wunderground v.1.15,2014-01-15 13:05:00,
2014-01-15 05:10:00,59.7,30.5,30.33,SE,131,0.0,4.0,33,0.00,,,0.00,Wunderground v.1.15,2014-01-15 13:10:00,
2014-01-15 05:15:00,59.5,30.3,30.33,SE,131,0.0,4.0,33,0.00,,,0.00,Wunderground v.1.15,2014-01-15 13:15:00,
2014-01-15 05:20:00,59.2,30.8,30.33,ESE,117,0.0,4.0,34,0.00,,,0.00,Wunderground v.1.15,2014-01-15 13:20:00,
2014-01-15 05:25:00,59.1,30.7,30.33,ESE,103,0.0,4.0,34,0.00,,,0.00,Wunderground v.1.15,2014-01-15 13:25:00,
2014-01-15 05:30:00,59.0,30.6,30.33,ESE,103,0.0,4.0,34,0.00,,,0.00,Wunderground v.1.15,2014-01-15 13:30:00,
2014-01-15 05:35:00,58.4,30.8,30.33,ESE,103,0.0,4.0,35,0.00,,,0.00,Wunderground v.1.15,2014-01-15 13:35:00,
2014-01-15 05:40:00,57.9,31.1,30.33,SSW,203,0.0,4.0,36,0.00,,,0.00,Wunderground v.1.15,2014-01-15 13:40:00,
2014-01-15 05:50:00,57.8,30.3,30.33,SSE,150,1.0,1.0,35,0.00,,,0.00,Wunderground v.1.15,2014-01-15 13:50:00,
2014-01-15 05:55:00,58.2,29.9,30.33,SE,134,0.0,4.0,34,0.00,,,0.00,Wunderground v.1.15,2014-01-15 13:55:00,
2014-01-15 06:00:00,58.4,30.1,30.34,SSE,155,0.0,0.0,34,0.00,,,0.00,Wunderground v.1.15,2014-01-15 14:00:00,
2014-01-15 06:10:00,58.3,30.7,30.33,East,98,0.0,1.0,35,0.00,,,0.00,Wunderground v.1.15,2014-01-15 14:10:00,
2014-01-15 06:15:00,58.5,30.2,30.33,SE,131,1.0,1.0,34,0.00,,,0.00,Wunderground v.1.15,2014-01-15 14:15:00,
2014-01-15 06:20:00,58.1,30.6,30.33,East,82,0.0,0.0,35,0.00,,,0.00,Wunderground v.1.15,2014-01-15 14:20:00,
2014-01-15 06:25:00,57.5,30.7,30.34,East,82,0.0,0.0,36,0.00,,,0.00,Wunderground v.1.15,2014-01-15 14:25:00,
2014-01-15 06:35:00,57.3,31.9,30.34,ESE,104,1.0,3.0,38,0.00,,,0.00,Wunderground v.1.15,2014-01-15 14:35:00,
2014-01-15 06:40:00,57.8,31.7,30.34,SE,143,1.0,1.0,37,0.00,,,0.00,Wunderground v.1.15,2014-01-15 14:40:00,
2014-01-15 06:45:00,57.4,32.0,30.34,SE,137,1.0,1.0,38,0.00,,,0.00,Wunderground v.1.15,2014-01-15 14:45:00,
2014-01-15 06:50:00,57.0,31.6,30.34,SE,134,1.0,1.0,38,0.00,,,0.00,Wunderground v.1.15,2014-01-15 14:50:00,
2014-01-15 06:55:00,56.6,31.9,30.34,SE,124,1.0,2.0,39,0.00,,,0.00,Wunderground v.1.15,2014-01-15 14:55:00,
2014-01-15 07:00:00,56.6,31.9,30.34,South,174,2.0,3.0,39,0.00,,,0.00,Wunderground v.1.15,2014-01-15 15:00:00,
2014-01-15 07:05:00,56.4,31.7,30.34,ESE,107,2.0,3.0,39,0.00,,,0.00,Wunderground v.1.15,2014-01-15 15:05:00,
2014-01-15 07:10:00,56.7,32.0,30.34,SE,132,1.0,1.0,39,0.00,,,0.00,Wunderground v.1.15,2014-01-15 15:10:00,
2014-01-15 07:15:00,56.5,31.8,30.34,SE,141,1.0,2.0,39,0.00,,,0.00,Wunderground v.1.15,2014-01-15 15:15:00,
2014-01-15 07:20:00,55.8,31.8,30.34,SE,141,0.0,2.0,40,0.00,,,0.00,Wunderground v.1.15,2014-01-15 15:20:00,
2014-01-15 07:25:00,55.5,31.5,30.34,NW,326,0.0,2.0,40,0.00,,,0.00,Wunderground v.1.15,2014-01-15 15:25:00,
2014-01-15 07:30:00,55.2,31.9,30.34,NNE,14,0.0,2.0,41,0.00,,,0.00,Wunderground v.1.15,2014-01-15 15:30:00,
2014-01-15 07:40:00,54.7,32.0,30.34,East,96,0.0,2.0,42,0.00,,,0.00,Wunderground v.1.15,2014-01-15 15:40:00,
2014-01-15 07:45:00,55.0,32.3,30.35,East,94,1.0,2.0,42,0.00,,,0.00,Wunderground v.1.15,2014-01-15 15:45:00,
2014-01-15 07:50:00,55.7,32.3,30.35,SE,141,2.0,2.0,41,0.00,,,0.00,Wunderground v.1.15,2014-01-15 15:50:00,
2014-01-15 07:55:00,56.2,32.8,30.35,ESE,120,1.0,2.0,41,0.00,,,0.00,Wunderground v.1.15,2014-01-15 15:55:00,
2014-01-15 08:00:00,56.7,32.6,30.35,ESE,108,1.0,2.0,40,0.00,,,0.00,Wunderground v.1.15,2014-01-15 16:00:00,
2014-01-15 08:10:00,57.3,33.2,30.35,ESE,118,1.0,1.0,40,0.00,,,0.00,Wunderground v.1.15,2014-01-15 16:10:00,
2014-01-15 08:15:00,57.8,33.0,30.35,ESE,105,1.0,3.0,39,0.00,,,0.00,Wunderground v.1.15,2014-01-15 16:15:00,
2014-01-15 08:20:00,57.9,33.7,30.35,ESE,114,1.0,2.0,40,0.00,,,0.00,Wunderground v.1.15,2014-01-15 16:20:00,
2014-01-15 08:25:00,58.1,33.2,30.35,SSE,155,2.0,2.0,39,0.00,,,0.00,Wunderground v.1.15,2014-01-15 16:25:00,
2014-01-15 08:30:00,58.5,33.0,30.35,SSE,151,2.0,3.0,38,0.00,,,0.00,Wunderground v.1.15,2014-01-15 16:30:00,
2014-01-15 08:35:00,58.8,33.2,30.36,ESE,108,2.0,3.0,38,0.00,,,0.00,Wunderground v.1.15,2014-01-15 16:35:00,
2014-01-15 08:45:00,58.8,33.9,30.36,ENE,74,2.0,3.0,39,0.00,,,0.00,Wunderground v.1.15,2014-01-15 16:45:00,
2014-01-15 08:50:00,58.8,33.9,30.36,East,91,2.0,3.0,39,0.00,,,0.00,Wunderground v.1.15,2014-01-15 16:50:00,
2014-01-15 08:55:00,59.0,34.1,30.37,ESE,110,2.0,3.0,39,0.00,,,0.00,Wunderground v.1.15,2014-01-15 16:55:00,
2014-01-15 09:00:00,59.2,33.6,30.36,East,86,3.0,3.0,38,0.00,,,0.00,Wunderground v.1.15,2014-01-15 17:00:00,
2014-01-15 09:05:00,59.5,33.9,30.37,SE,146,3.0,3.0,38,0.00,,,0.00,Wunderground v.1.15,2014-01-15 17:05:00,
2014-01-15 09:15:00,59.6,33.9,30.37,SE,136,3.0,5.0,38,0.00,,,0.00,Wunderground v.1.15,2014-01-15 17:15:00,
2014-01-15 09:20:00,59.5,33.2,30.37,SE,134,4.0,4.0,37,0.00,,,0.00,Wunderground v.1.15,2014-01-15 17:20:00,
2014-01-15 09:25:00,59.6,33.3,30.37,SSE,153,4.0,4.0,37,0.00,,,0.00,Wunderground v.1.15,2014-01-15 17:25:00,
2014-01-15 09:30:00,59.8,33.5,30.37,SSE,147,4.0,4.0,37,0.00,,,0.00,Wunderground v.1.15,2014-01-15 17:30:00,
2014-01-15 09:35:00,60.0,33.6,30.37,SSE,160,4.0,5.0,37,0.00,,,0.00,Wunderground v.1.15,2014-01-15 17:35:00,
2014-01-15 09:40:00,60.1,34.4,30.37,SE,136,4.0,4.0,38,0.00,,,0.00,Wunderground v.1.15,2014-01-15 17:40:00,
2014-01-15 09:50:00,61.1,33.9,30.37,ESE,120,3.0,3.0,36,0.00,,,0.00,Wunderground v.1.15,2014-01-15 17:50:00,
2014-01-15 09:55:00,61.6,33.7,30.37,ESE,120,3.0,3.0,35,0.00,,,0.00,Wunderground v.1.15,2014-01-15 17:55:00,
2014-01-15 10:00:00,61.7,34.5,30.37,SE,145,3.0,5.0,36,0.00,,,0.00,Wunderground v.1.15,2014-01-15 18:00:00,
2014-01-15 10:05:00,62.1,34.8,30.37,East,87,2.0,5.0,36,0.00,,,0.00,Wunderground v.1.15,2014-01-15 18:05:00,
2014-01-15 10:10:00,62.5,35.2,30.37,ESE,105,2.0,2.0,36,0.00,,,0.00,Wunderground v.1.15,2014-01-15 18:10:00,
2014-01-15 10:20:00,62.8,34.7,30.36,South,188,3.0,3.0,35,0.00,,,0.00,Wunderground v.1.15,2014-01-15 18:20:00,
2014-01-15 10:25:00,63.1,33.5,30.36,South,169,3.0,3.0,33,0.00,,,0.00,Wunderground v.1.15,2014-01-15 18:25:00,
2014-01-15 10:30:00,63.5,34.6,30.36,SE,145,3.0,3.0,34,0.00,,,0.00,Wunderground v.1.15,2014-01-15 18:30:00,
2014-01-15 10:35:00,63.7,34.0,30.36,South,170,3.0,3.0,33,0.00,,,0.00,Wunderground v.1.15,2014-01-15 18:35:00,
2014-01-15 10:40:00,64.1,35.1,30.35,SE,131,3.0,4.0,34,0.00,,,0.00,Wunderground v.1.15,2014-01-15 18:40:00,
2014-01-15 10:45:00,64.2,35.2,30.35,East,99,3.0,4.0,34,0.00,,,0.00,Wunderground v.1.15,2014-01-15 18:45:00,
2014-01-15 10:50:00,64.7,35.7,30.35,ENE,60,3.0,4.0,34,0.00,,,0.00,Wunderground v.1.15,2014-01-15 18:50:00,
2014-01-15 11:00:00,65.3,34.7,30.35,South,180,2.0,3.0,32,0.00,,,0.00,Wunderground v.1.15,2014-01-15 19:00:00,
2014-01-15 11:05:00,65.6,34.9,30.34,ENE,74,2.0,3.0,32,0.00,,,0.00,Wunderground v.1.15,2014-01-15 19:05:00,
2014-01-15 11:10:00,65.7,35.0,30.34,ENE,73,2.0,2.0,32,0.00,,,0.00,Wunderground v.1.15,2014-01-15 19:10:00,
2014-01-15 11:15:00,65.7,35.0,30.34,ENE,70,2.0,2.0,32,0.00,,,0.00,Wunderground v.1.15,2014-01-15 19:15:00,
2014-01-15 11:20:00,65.8,34.3,30.33,ESE,117,2.0,2.0,31,0.00,,,0.00,Wunderground v.1.15,2014-01-15 19:20:00,
2014-01-15 11:25:00,66.0,34.5,30.33,East,90,2.0,2.0,31,0.00,,,0.00,Wunderground v.1.15,2014-01-15 19:25:00,
2014-01-15 11:30:00,66.0,34.5,30.33,ENE,65,2.0,2.0,31,0.00,,,0.00,Wunderground v.1.15,2014-01-15 19:30:00,
2014-01-15 11:35:00,66.5,35.7,30.33,ENE,58,2.0,4.0,32,0.00,,,0.00,Wunderground v.1.15,2014-01-15 19:35:00,
2014-01-15 11:40:00,66.4,34.0,30.32,East,91,2.0,2.0,30,0.00,,,0.00,Wunderground v.1.15,2014-01-15 19:40:00,
2014-01-15 11:45:00,66.6,34.2,30.32,NE,53,2.0,3.0,30,0.00,,,0.00,Wunderground v.1.15,2014-01-15 19:45:00,
2014-01-15 11:55:00,66.5,33.2,30.31,North,359,2.0,2.0,29,0.00,,,0.00,Wunderground v.1.15,2014-01-15 19:55:00,
2014-01-15 12:00:00,66.4,33.2,30.31,NE,51,2.0,2.0,29,0.00,,,0.00,Wunderground v.1.15,2014-01-15 20:00:00,
2014-01-15 12:10:00,66.5,33.2,30.30,ENE,70,2.0,2.0,29,0.00,,,0.00,Wunderground v.1.15,2014-01-15 20:10:00,
2014-01-15 12:15:00,67.1,33.8,30.30,ENE,72,1.0,3.0,29,0.00,,,0.00,Wunderground v.1.15,2014-01-15 20:15:00,
2014-01-15 12:20:00,67.3,33.1,30.30,NNE,30,1.0,1.0,28,0.00,,,0.00,Wunderground v.1.15,2014-01-15 20:20:00,
2014-01-15 12:25:00,67.6,33.3,30.30,ENE,70,1.0,1.0,28,0.00,,,0.00,Wunderground v.1.15,2014-01-15 20:25:00,
2014-01-15 12:30:00,67.8,33.5,30.30,NE,42,1.0,1.0,28,0.00,,,0.00,Wunderground v.1.15,2014-01-15 20:30:00,
2014-01-15 12:35:00,67.5,33.2,30.29,ENE,69,1.0,3.0,28,0.00,,,0.00,Wunderground v.1.15,2014-01-15 20:35:00,
2014-01-15 12:40:00,67.3,33.9,30.29,ENE,68,2.0,2.0,29,0.00,,,0.00,Wunderground v.1.15,2014-01-15 20:40:00,
2014-01-15 12:45:00,67.3,33.9,30.28,ENE,77,2.0,2.0,29,0.00,,,0.00,Wunderground v.1.15,2014-01-15 20:45:00,
2014-01-15 12:50:00,67.7,34.3,30.28,NNW,328,2.0,2.0,29,0.00,,,0.00,Wunderground v.1.15,2014-01-15 20:50:00,
2014-01-15 13:00:00,68.0,33.7,30.28,NW,321,2.0,2.0,28,0.00,,,0.00,Wunderground v.1.15,2014-01-15 21:00:00,
2014-01-15 13:05:00,67.9,32.7,30.28,NNW,332,2.0,2.0,27,0.00,,,0.00,Wunderground v.1.15,2014-01-15 21:05:00,
2014-01-15 13:10:00,67.9,33.6,30.28,NNE,21,2.0,2.0,28,0.00,,,0.00,Wunderground v.1.15,2014-01-15 21:10:00,
2014-01-15 13:15:00,67.9,33.6,30.27,NNW,337,1.0,4.0,28,0.00,,,0.00,Wunderground v.1.15,2014-01-15 21:15:00,
2014-01-15 13:20:00,67.9,33.6,30.27,NE,42,2.0,4.0,28,0.00,,,0.00,Wunderground v.1.15,2014-01-15 21:20:00,
2014-01-15 13:25:00,68.1,34.6,30.27,NNW,342,1.0,4.0,29,0.00,,,0.00,Wunderground v.1.15,2014-01-15 21:25:00,
2014-01-15 13:35:00,68.4,34.9,30.27,ENE,62,1.0,4.0,29,0.00,,,0.00,Wunderground v.1.15,2014-01-15 21:35:00,
2014-01-15 13:40:00,68.6,35.1,30.27,ENE,68,1.0,1.0,29,0.00,,,0.00,Wunderground v.1.15,2014-01-15 21:40:00,
2014-01-15 13:45:00,68.8,35.2,30.27,NNW,347,1.0,4.0,29,0.00,,,0.00,Wunderground v.1.15,2014-01-15 21:45:00,
2014-01-15 13:50:00,69.1,35.5,30.27,ESE,105,1.0,1.0,29,0.00,,,0.00,Wunderground v.1.15,2014-01-15 21:50:00,
2014-01-15 13:55:00,69.2,35.6,30.26,NE,42,0.0,4.0,29,0.00,,,0.00,Wunderground v.1.15,2014-01-15 21:55:00,
2014-01-15 14:05:00,69.0,36.3,30.26,ENE,78,1.0,2.0,30,0.00,,,0.00,Wunderground v.1.15,2014-01-15 22:05:00,
2014-01-15 14:10:00,68.9,36.2,30.26,ENE,63,1.0,4.0,30,0.00,,,0.00,Wunderground v.1.15,2014-01-15 22:10:00,
2014-01-15 14:15:00,68.8,36.1,30.26,East,86,1.0,4.0,30,0.00,,,0.00,Wunderground v.1.15,2014-01-15 22:15:00,
2014-01-15 14:20:00,68.9,35.3,30.26,East,82,1.0,4.0,29,0.00,,,0.00,Wunderground v.1.15,2014-01-15 22:20:00,
2014-01-15 14:25:00,69.0,35.4,30.26,NNW,338,1.0,4.0,29,0.00,,,0.00,Wunderground v.1.15,2014-01-15 22:25:00,
2014-01-15 14:30:00,69.6,36.8,30.26,NNW,335,1.0,1.0,30,0.00,,,0.00,Wunderground v.1.15,2014-01-15 22:30:00,
2014-01-15 14:40:00,69.8,36.1,30.25,NNW,335,1.0,1.0,29,0.00,,,0.00,Wunderground v.1.15,2014-01-15 22:40:00,
2014-01-15 14:45:00,70.2,36.4,30.25,North,360,1.0,4.0,29,0.00,,,0.00,Wunderground v.1.15,2014-01-15 22:45:00,
2014-01-15 14:50:00,70.2,36.4,30.25,NNE,28,1.0,1.0,29,0.00,,,0.00,Wunderground v.1.15,2014-01-15 22:50:00,
2014-01-15 14:55:00,70.3,36.5,30.25,NNE,13,1.0,4.0,29,0.00,,,0.00,Wunderground v.1.15,2014-01-15 22:55:00,
2014-01-15 15:00:00,70.6,36.8,30.25,North,355,1.0,1.0,29,0.00,,,0.00,Wunderground v.1.15,2014-01-15 23:00:00,
2014-01-15 15:10:00,71.3,36.5,30.25,North,358,0.0,4.0,28,0.00,,,0.00,Wunderground v.1.15,2014-01-15 23:10:00,
2014-01-15 15:15:00,70.8,36.1,30.25,North,6,1.0,4.0,28,0.00,,,0.00,Wunderground v.1.15,2014-01-15 23:15:00,
2014-01-15 15:20:00,70.7,36.0,30.25,ENE,65,1.0,1.0,28,0.00,,,0.00,Wunderground v.1.15,2014-01-15 23:20:00,
2014-01-15 15:25:00,70.8,37.0,30.25,NE,42,1.0,4.0,29,0.00,,,0.00,Wunderground v.1.15,2014-01-15 23:25:00,
2014-01-15 15:30:00,71.2,36.4,30.25,ENE,74,0.0,4.0,28,0.00,,,0.00,Wunderground v.1.15,2014-01-15 23:30:00,
2014-01-15 15:35:00,71.1,36.3,30.25,East,93,0.0,4.0,28,0.00,,,0.00,Wunderground v.1.15,2014-01-15 23:35:00,
2014-01-15 15:45:00,71.5,36.7,30.25,ESE,117,0.0,4.0,28,0.00,,,0.00,Wunderground v.1.15,2014-01-15 23:45:00,
2014-01-15 15:50:00,71.1,36.3,30.25,East,85,1.0,1.0,28,0.00,,,0.00,Wunderground v.1.15,2014-01-15 23:50:00,
2014-01-15 15:55:00,71.2,36.4,30.24,SE,124,0.0,4.0,28,0.00,,,0.00,Wunderground v.1.15,2014-01-15 23:55:00,
2014-01-15 16:00:00,70.9,37.9,30.24,East,100,0.0,4.0,30,0.00,,,0.00,Wunderground v.1.15,2014-01-16 00:00:00,
2014-01-15 16:05:00,70.8,37.0,30.24,ESE,105,0.0,4.0,29,0.00,,,0.00,Wunderground v.1.15,2014-01-16 00:05:00,
2014-01-15 16:10:00,70.7,36.0,30.24,SSE,150,0.0,4.0,28,0.00,,,0.00,Wunderground v.1.15,2014-01-16 00:10:00,
2014-01-15 16:15:00,70.8,36.1,30.24,SE,143,1.0,4.0,28,0.00,,,0.00,Wunderground v.1.15,2014-01-16 00:15:00,
2014-01-15 16:20:00,70.9,36.1,30.24,SE,145,1.0,1.0,28,0.00,,,0.00,Wunderground v.1.15,2014-01-16 00:20:00,
2014-01-15 16:25:00,71.4,36.6,30.24,SE,144,0.0,4.0,28,0.00,,,0.00,Wunderground v.1.15,2014-01-16 00:25:00,
2014-01-15 16:30:00,71.8,36.0,30.24,SW,222,0.0,4.0,27,0.00,,,0.00,Wunderground v.1.15,2014-01-16 00:30:00,
2014-01-15 16:35:00,71.9,37.0,30.24,SW,222,0.0,4.0,28,0.00,,,0.00,Wunderground v.1.15,2014-01-16 00:35:00,
2014-01-15 16:45:00,70.8,36.1,30.24,SW,231,0.0,4.0,28,0.00,,,0.00,Wunderground v.1.15,2014-01-16 00:45:00,
2014-01-15 16:50:00,69.9,36.2,30.24,SW,231,0.0,4.0,29,0.00,,,0.00,Wunderground v.1.15,2014-01-16 00:50:00,
2014-01-15 16:55:00,69.0,35.4,30.23,SW,231,0.0,4.0,29,0.00,,,0.00,Wunderground v.1.15,2014-01-16 00:55:00,
2014-01-15 17:00:00,68.6,35.1,30.23,SW,231,0.0,4.0,29,0.00,,,0.00,Wunderground v.1.15,2014-01-16 01:00:00,
2014-01-15 17:05:00,68.3,34.8,30.23,SW,231,0.0,4.0,29,0.00,,,0.00,Wunderground v.1.15,2014-01-16 01:05:00,
2014-01-15 17:10:00,68.1,34.6,30.23,SW,231,0.0,4.0,29,0.00,,,0.00,Wunderground v.1.15,2014-01-16 01:10:00,
2014-01-15 17:20:00,67.7,34.3,30.23,West,273,0.0,4.0,29,0.00,,,0.00,Wunderground v.1.15,2014-01-16 01:20:00,
2014-01-15 17:25:00,67.3,34.8,30.23,West,277,0.0,4.0,30,0.00,,,0.00,Wunderground v.1.15,2014-01-16 01:25:00,
2014-01-15 17:30:00,67.1,34.6,30.23,WNW,282,1.0,4.0,30,0.00,,,0.00,Wunderground v.1.15,2014-01-16 01:30:00,
2014-01-15 17:35:00,67.1,34.6,30.23,West,280,1.0,4.0,30,0.00,,,0.00,Wunderground v.1.15,2014-01-16 01:35:00,
2014-01-15 17:40:00,66.9,34.4,30.23,West,273,1.0,1.0,30,0.00,,,0.00,Wunderground v.1.15,2014-01-16 01:40:00,
2014-01-15 17:50:00,66.6,34.2,30.23,West,273,0.0,4.0,30,0.00,,,0.00,Wunderground v.1.15,2014-01-16 01:50:00,
2014-01-15 17:55:00,66.6,34.2,30.23,SW,220,0.0,4.0,30,0.00,,,0.00,Wunderground v.1.15,2014-01-16 01:55:00,
2014-01-15 18:00:00,66.3,33.9,30.23,SW,220,0.0,0.0,30,0.00,,,0.00,Wunderground v.1.15,2014-01-16 02:00:00,
2014-01-15 18:10:00,66.0,33.7,30.23,SW,220,0.0,0.0,30,0.00,,,0.00,Wunderground v.1.15,2014-01-16 02:10:00,
2014-01-15 18:15:00,65.9,33.6,30.23,SW,220,0.0,0.0,30,0.00,,,0.00,Wunderground v.1.15,2014-01-16 02:15:00,
2014-01-15 18:25:00,65.2,33.8,30.23,West,281,0.0,0.0,31,0.00,,,0.00,Wunderground v.1.15,2014-01-16 02:25:00,
2014-01-15 18:30:00,65.1,33.7,30.23,West,281,0.0,0.0,31,0.00,,,0.00,Wunderground v.1.15,2014-01-16 02:30:00,
2014-01-15 18:35:00,65.4,34.8,30.23,ESE,116,0.0,0.0,32,0.00,,,0.00,Wunderground v.1.15,2014-01-16 02:35:00,
2014-01-15 18:40:00,65.5,34.8,30.23,ESE,115,0.0,0.0,32,0.00,,,0.00,Wunderground v.1.15,2014-01-16 02:40:00,
2014-01-15 18:45:00,65.1,35.3,30.23,ESE,115,0.0,0.0,33,0.00,,,0.00,Wunderground v.1.15,2014-01-16 02:45:00,
2014-01-15 18:55:00,64.7,34.1,30.23,SSE,155,0.0,0.0,32,0.00,,,0.00,Wunderground v.1.15,2014-01-16 02:55:00,
2014-01-15 19:00:00,64.7,33.3,30.23,SSE,153,0.0,0.0,31,0.00,,,0.00,Wunderground v.1.15,2014-01-16 03:00:00,
2014-01-15 19:05:00,64.7,33.3,30.23,SSW,210,0.0,1.0,31,0.00,,,0.00,Wunderground v.1.15,2014-01-16 03:05:00,
2014-01-15 19:10:00,64.7,33.3,30.23,SW,216,0.0,0.0,31,0.00,,,0.00,Wunderground v.1.15,2014-01-16 03:10:00,
2014-01-15 19:15:00,64.6,33.3,30.23,SSW,211,0.0,0.0,31,0.00,,,0.00,Wunderground v.1.15,2014-01-16 03:15:00,
2014-01-15 19:20:00,64.2,32.9,30.23,SW,229,1.0,2.0,31,0.00,,,0.00,Wunderground v.1.15,2014-01-16 03:20:00,
2014-01-15 19:30:00,64.0,32.7,30.23,SSW,206,1.0,1.0,31,0.00,,,0.00,Wunderground v.1.15,2014-01-16 03:30:00,
2014-01-15 19:35:00,63.8,32.6,30.23,SSW,212,1.0,3.0,31,0.00,,,0.00,Wunderground v.1.15,2014-01-16 03:35:00,
2014-01-15 19:40:00,63.6,32.4,30.23,SSW,193,2.0,2.0,31,0.00,,,0.00,Wunderground v.1.15,2014-01-16 03:40:00,
2014-01-15 19:45:00,63.7,31.7,30.23,SSW,208,2.0,2.0,30,0.00,,,0.00,Wunderground v.1.15,2014-01-16 03:45:00,
2014-01-15 19:50:00,63.9,31.8,30.23,SSW,213,2.0,2.0,30,0.00,,,0.00,Wunderground v.1.15,2014-01-16 03:50:00,
2014-01-15 20:00:00,64.8,30.9,30.23,SW,222,2.0,2.0,28,0.00,,,0.00,Wunderground v.1.15,2014-01-16 04:00:00,
2014-01-15 20:05:00,64.9,30.1,30.23,SSW,205,1.0,2.0,27,0.00,,,0.00,Wunderground v.1.15,2014-01-16 04:05:00,
2014-01-15 20:10:00,65.0,30.2,30.23,SSW,205,0.0,0.0,27,0.00,,,0.00,Wunderground v.1.15,2014-01-16 04:10:00,
2014-01-15 20:15:00,65.0,30.2,30.23,SSW,204,0.0,0.0,27,0.00,,,0.00,Wunderground v.1.15,2014-01-16 04:15:00,
2014-01-15 20:20:00,64.6,29.8,30.23,SW,221,0.0,0.0,27,0.00,,,0.00,Wunderground v.1.15,2014-01-16 04:20:00,
2014-01-15 20:25:00,64.6,28.9,30.23,SSW,198,1.0,1.0,26,0.00,,,0.00,Wunderground v.1.15,2014-01-16 04:25:00,
2014-01-15 20:35:00,65.0,27.3,30.23,South,169,1.0,2.0,24,0.00,,,0.00,Wunderground v.1.15,2014-01-16 04:35:00,
2014-01-15 20:40:00,65.0,27.3,30.23,South,187,2.0,2.0,24,0.00,,,0.00,Wunderground v.1.15,2014-01-16 04:40:00,
2014-01-15 20:45:00,65.2,26.4,30.23,South,191,2.0,5.0,23,0.00,,,0.00,Wunderground v.1.15,2014-01-16 04:45:00,
2014-01-15 20:50:00,65.9,25.9,30.23,SSE,157,3.0,3.0,22,0.00,,,0.00,Wunderground v.1.15,2014-01-16 04:50:00,
2014-01-15 20:55:00,66.0,24.9,30.23,SE,141,3.0,3.0,21,0.00,,,0.00,Wunderground v.1.15,2014-01-16 04:55:00,
2014-01-15 21:05:00,65.5,24.5,30.24,SSW,202,1.0,2.0,21,0.00,,,0.00,Wunderground v.1.15,2014-01-16 05:05:00,
2014-01-15 21:10:00,65.8,23.6,30.24,SSW,192,1.0,1.0,20,0.00,,,0.00,Wunderground v.1.15,2014-01-16 05:10:00,
2014-01-15 21:15:00,65.7,23.5,30.24,SSW,210,1.0,1.0,20,0.00,,,0.00,Wunderground v.1.15,2014-01-16 05:15:00,
2014-01-15 21:20:00,65.4,23.2,30.23,SSE,158,1.0,1.0,20,0.00,,,0.00,Wunderground v.1.15,2014-01-16 05:20:00,
2014-01-15 21:25:00,65.7,23.5,30.23,SSE,147,0.0,1.0,20,0.00,,,0.00,Wunderground v.1.15,2014-01-16 05:25:00,
2014-01-15 21:30:00,65.6,23.4,30.23,SSW,203,0.0,0.0,20,0.00,,,0.00,Wunderground v.1.15,2014-01-16 05:30:00,
2014-01-15 21:35:00,65.4,23.2,30.23,SW,231,0.0,0.0,20,0.00,,,0.00,Wunderground v.1.15,2014-01-16 05:35:00,
2014-01-15 21:40:00,65.2,23.1,30.24,SW,226,0.0,0.0,20,0.00,,,0.00,Wunderground v.1.15,2014-01-16 05:40:00,
2014-01-15 21:45:00,64.9,22.8,30.24,SW,214,0.0,0.0,20,0.00,,,0.00,Wunderground v.1.15,2014-01-16 05:45:00,
2014-01-15 21:50:00,64.9,21.6,30.24,SE,141,0.0,1.0,19,0.00,,,0.00,Wunderground v.1.15,2014-01-16 05:50:00,
2014-01-15 21:55:00,65.6,22.2,30.24,South,169,1.0,3.0,19,0.00,,,0.00,Wunderground v.1.15,2014-01-16 05:55:00,
2014-01-15 22:00:00,66.2,21.4,30.24,ESE,118,1.0,1.0,18,0.00,,,0.00,Wunderground v.1.15,2014-01-16 06:00:00,
2014-01-15 22:10:00,66.8,20.5,30.24,SE,143,1.0,1.0,17,0.00,,,0.00,Wunderground v.1.15,2014-01-16 06:10:00,
2014-01-15 22:15:00,66.9,20.6,30.24,SE,142,0.0,1.0,17,0.00,,,0.00,Wunderground v.1.15,2014-01-16 06:15:00,
2014-01-15 22:20:00,66.6,20.4,30.24,SE,142,0.0,0.0,17,0.00,,,0.00,Wunderground v.1.15,2014-01-16 06:20:00,
2014-01-15 22:25:00,65.8,21.1,30.24,SE,143,0.0,0.0,18,0.00,,,0.00,Wunderground v.1.15,2014-01-16 06:25:00,
2014-01-15 22:30:00,65.6,20.9,30.24,SE,142,0.0,0.0,18,0.00,,,0.00,Wunderground v.1.15,2014-01-16 06:30:00,
2014-01-15 22:35:00,65.6,19.6,30.24,SE,143,0.0,0.0,17,0.00,,,0.00,Wunderground v.1.15,2014-01-16 06:35:00,
2014-01-15 22:45:00,65.0,20.4,30.23,SE,141,0.0,1.0,18,0.00,,,0.00,Wunderground v.1.15,2014-01-16 06:45:00,
2014-01-15 22:50:00,65.1,20.5,30.23,SE,141,0.0,0.0,18,0.00,,,0.00,Wunderground v.1.15,2014-01-16 06:50:00,
2014-01-15 22:55:00,64.6,21.4,30.23,SE,141,0.0,1.0,19,0.00,,,0.00,Wunderground v.1.15,2014-01-16 06:55:00,
2014-01-15 23:00:00,63.9,22.0,30.23,SE,141,0.0,0.0,20,0.00,,,0.00,Wunderground v.1.15,2014-01-16 07:00:00,
2014-01-15 23:05:00,63.8,23.1,30.23,SE,141,0.0,0.0,21,0.00,,,0.00,Wunderground v.1.15,2014-01-16 07:05:00,
2014-01-15 23:15:00,62.7,22.2,30.23,SE,141,0.0,0.0,21,0.00,,,0.00,Wunderground v.1.15,2014-01-16 07:15:00,
2014-01-15 23:20:00,62.4,21.9,30.23,SE,141,0.0,0.0,21,0.00,,,0.00,Wunderground v.1.15,2014-01-16 07:20:00,
2014-01-15 23:25:00,62.4,21.9,30.23,SW,228,0.0,0.0,21,0.00,,,0.00,Wunderground v.1.15,2014-01-16 07:25:00,
2014-01-15 23:30:00,62.6,22.1,30.23,North,352,1.0,1.0,21,0.00,,,0.00,Wunderground v.1.15,2014-01-16 07:30:00,
2014-01-15 23:35:00,62.2,22.8,30.23,North,352,1.0,1.0,22,0.00,,,0.00,Wunderground v.1.15,2014-01-16 07:35:00,
2014-01-15 23:40:00,61.5,25.3,30.23,North,352,1.0,1.0,25,0.00,,,0.00,Wunderground v.1.15,2014-01-16 07:40:00,
2014-01-15 23:45:00,60.5,26.3,30.23,North,352,0.0,1.0,27,0.00,,,0.00,Wunderground v.1.15,2014-01-16 07:45:00,
2014-01-15 23:50:00,59.8,28.3,30.23,North,352,0.0,0.0,30,0.00,,,0.00,Wunderground v.1.15,2014-01-16 07:50:00,
2014-01-15 23:55:00,59.2,28.5,30.23,North,352,0.0,0.0,31,0.00,,,0.00,Wunderground v.1.15,2014-01-16 07:55:00,